| time (UTC) | temp F | wind direction | speed MPH | gust MPH | rain 1hr in | rain 24hr in | rain mn in | humidity % | barometer mb |
| 20260509132417 | 45 | 360 | 0.0 | 0.0 | 0.00 | 0.00 | 0.00 | 95 | 1020.1 |
| 20260509131917 | 45 | 360 | 0.0 | 0.0 | 0.00 | 0.00 | 0.00 | 94 | 1020.1 |
| 20260509131417 | 45 | 232 | 0.0 | 0.0 | 0.00 | 0.00 | 0.00 | 94 | 1020.1 |
| 20260509130917 | 45 | 233 | 0.0 | 0.0 | 0.00 | 0.00 | 0.00 | 94 | 1020.1 |
| 20260509130417 | 45 | 233 | 0.0 | 0.0 | 0.00 | 0.00 | 0.00 | 94 | 1020.1 |
| 20260509125917 | 45 | 233 | 0.0 | 0.0 | 0.00 | 0.00 | 0.00 | 94 | 1020.1 |
| 20260509124917 | 45 | 233 | 0.0 | 0.0 | 0.00 | 0.00 | 0.00 | 93 | 1020.0 |
| 20260509124417 | 45 | 233 | 0.0 | 0.0 | 0.00 | 0.00 | 0.00 | 93 | 1020.0 |
| 20260509123917 | 46 | 233 | 0.0 | 0.0 | 0.00 | 0.00 | 0.00 | 94 | 1020.2 |
| 20260509123417 | 46 | 233 | 0.0 | 0.0 | 0.00 | 0.00 | 0.00 | 93 | 1020.2 |
| 20260509122916 | 46 | 233 | 0.0 | 0.0 | 0.00 | 0.00 | 0.00 | 93 | 1020.2 |
| 20260509122417 | 46 | 233 | 0.0 | 0.0 | 0.00 | 0.00 | 0.00 | 93 | 1020.2 |
| 20260509121917 | 46 | 233 | 0.0 | 0.0 | 0.00 | 0.00 | 0.00 | 93 | 1020.2 |
| 20260509121416 | 46 | 233 | 0.0 | 0.0 | 0.00 | 0.00 | 0.00 | 93 | 1020.2 |
| 20260509120917 | 46 | 233 | 0.0 | 0.0 | 0.00 | 0.00 | 0.00 | 93 | 1020.4 |
| 20260509120417 | 46 | 233 | 0.0 | 0.0 | 0.00 | 0.00 | 0.00 | 92 | 1020.4 |
| 20260509115917 | 46 | 233 | 0.0 | 0.0 | 0.00 | 0.00 | 0.00 | 92 | 1020.4 |
| 20260509115417 | 46 | 233 | 0.0 | 0.0 | 0.00 | 0.00 | 0.00 | 92 | 1020.3 |
| 20260509114917 | 46 | 233 | 0.0 | 0.0 | 0.00 | 0.00 | 0.00 | 92 | 1020.3 |
| 20260509114416 | 46 | 233 | 0.0 | 0.0 | 0.00 | 0.00 | 0.00 | 92 | 1020.3 |
| 20260509113917 | 46 | 233 | 0.0 | 0.0 | 0.00 | 0.00 | 0.00 | 92 | 1020.4 |
| 20260509113416 | 46 | 233 | 0.0 | 0.0 | 0.00 | 0.00 | 0.00 | 92 | 1020.4 |
| 20260509112917 | 46 | 233 | 0.0 | 0.0 | 0.00 | 0.00 | 0.00 | 92 | 1020.4 |
| 20260509111917 | 46 | 233 | 0.0 | 0.0 | 0.00 | 0.00 | 0.00 | 92 | 1020.4 |
| 20260509111416 | 46 | 233 | 0.0 | 0.0 | 0.00 | 0.00 | 0.00 | 92 | 1020.4 |
| 20260509110916 | 46 | 233 | 0.0 | 0.0 | 0.00 | 0.00 | 0.00 | 91 | 1020.4 |
| 20260509110416 | 46 | 233 | 0.0 | 0.0 | 0.00 | 0.00 | 0.00 | 91 | 1020.4 |
| 20260509105916 | 46 | 232 | 0.0 | 0.0 | 0.00 | 0.00 | 0.00 | 91 | 1020.4 |
| 20260509104916 | 47 | 232 | 0.0 | 0.0 | 0.00 | 0.00 | 0.00 | 91 | 1020.7 |
| 20260509103917 | 47 | 233 | 0.0 | 0.0 | 0.00 | 0.00 | 0.00 | 91 | 1020.8 |
| 20260509103416 | 47 | 233 | 0.0 | 0.0 | 0.00 | 0.00 | 0.00 | 91 | 1020.8 |
| 20260509101416 | 47 | 232 | 0.0 | 0.0 | 0.00 | 0.00 | 0.00 | 90 | 1020.8 |
| 20260509092917 | 48 | 232 | 0.0 | 0.0 | 0.00 | 0.00 | 0.00 | 90 | 1020.8 |
| 20260509092416 | 48 | 232 | 0.0 | 0.0 | 0.00 | 0.00 | 0.00 | 90 | 1021.0 |
| 20260509090916 | 49 | 232 | 0.0 | 0.0 | 0.00 | 0.00 | 0.00 | 90 | 1021.1 |
| 20260509090416 | 49 | 232 | 0.0 | 0.0 | 0.00 | 0.00 | 0.00 | 89 | 1021.1 |
| 20260509085416 | 49 | 232 | 0.0 | 0.0 | 0.00 | 0.00 | 0.00 | 89 | 1021.2 |
| 20260509084916 | 49 | 232 | 0.0 | 0.0 | 0.00 | 0.00 | 0.00 | 89 | 1021.2 |
| 20260509083415 | 49 | 232 | 0.0 | 0.0 | 0.00 | 0.00 | 0.00 | 89 | 1021.2 |
| 20260509082915 | 49 | 232 | 0.0 | 0.0 | 0.00 | 0.00 | 0.00 | 89 | 1021.2 |
| 20260509082415 | 50 | 232 | 0.0 | 0.0 | 0.00 | 0.00 | 0.00 | 88 | 1021.3 |
| 20260509081916 | 50 | 232 | 0.0 | 0.0 | 0.00 | 0.00 | 0.00 | 88 | 1021.3 |
| 20260509081416 | 50 | 232 | 0.0 | 0.0 | 0.00 | 0.00 | 0.00 | 88 | 1021.3 |
| 20260509080916 | 50 | 232 | 0.0 | 0.0 | 0.00 | 0.00 | 0.00 | 88 | 1021.3 |
| 20260509075915 | 51 | 232 | 0.0 | 0.0 | 0.00 | 0.00 | 0.00 | 88 | 1021.3 |
| 20260509074916 | 51 | 232 | 0.0 | 0.0 | 0.00 | 0.00 | 0.00 | 87 | 1021.3 |
| 20260509074415 | 51 | 232 | 0.0 | 0.0 | 0.00 | 0.00 | 0.00 | 87 | 1021.3 |
| 20260509073916 | 51 | 233 | 0.0 | 0.0 | 0.00 | 0.00 | 0.00 | 86 | 1021.3 |
| 20260509073416 | 51 | 232 | 0.0 | 0.0 | 0.00 | 0.00 | 0.00 | 86 | 1021.3 |
| 20260509072916 | 51 | 232 | 0.0 | 0.0 | 0.00 | 0.00 | 0.00 | 86 | 1021.3 |
| 20260509071916 | 52 | 232 | 0.0 | 0.0 | 0.00 | 0.00 | 0.00 | 85 | 1021.3 |
| 20260509071415 | 52 | 232 | 0.0 | 0.0 | 0.00 | 0.00 | 0.00 | 84 | 1021.3 |
| 20260509070915 | 52 | 232 | 0.0 | 0.0 | 0.00 | 0.00 | 0.00 | 84 | 1021.3 |
| 20260509070415 | 53 | 232 | 0.0 | 0.0 | 0.00 | 0.00 | 0.00 | 83 | 1021.3 |
| 20260509065915 | 53 | 232 | 0.0 | 0.0 | 0.00 | 0.00 | 0.00 | 82 | 1021.3 |
| 20260509065415 | 53 | 232 | 0.0 | 0.0 | 0.00 | 0.00 | 0.00 | 82 | 1021.3 |
| 20260509064915 | 53 | 232 | 0.0 | 0.0 | 0.00 | 0.00 | 0.00 | 82 | 1021.3 |
| 20260509063915 | 54 | 232 | 0.0 | 0.0 | 0.00 | 0.00 | 0.00 | 81 | 1021.3 |
| 20260509062915 | 55 | 232 | 0.0 | 0.0 | 0.00 | 0.00 | 0.00 | 80 | 1021.3 |
| 20260509062415 | 55 | 232 | 0.0 | 0.0 | 0.00 | 0.00 | 0.00 | 79 | 1021.3 |
| 20260509061915 | 55 | 232 | 0.0 | 0.0 | 0.00 | 0.00 | 0.00 | 79 | 1021.3 |
| 20260509061415 | 56 | 232 | 0.0 | 0.0 | 0.00 | 0.00 | 0.00 | 79 | 1021.3 |
| 20260509060915 | 56 | 232 | 0.0 | 0.0 | 0.00 | 0.00 | 0.00 | 78 | 1021.3 |
| 20260509060415 | 56 | 232 | 0.0 | 0.0 | 0.00 | 0.00 | 0.00 | 78 | 1021.3 |
| 20260509055915 | 57 | 232 | 0.0 | 0.0 | 0.00 | 0.00 | 0.00 | 77 | 1021.4 |
| 20260509055415 | 57 | 232 | 0.0 | 1.0 | 0.00 | 0.00 | 0.00 | 76 | 1021.3 |
| 20260509054915 | 57 | 232 | 0.0 | 1.0 | 0.00 | 0.00 | 0.00 | 76 | 1021.3 |
| 20260509054415 | 57 | 232 | 0.0 | 0.0 | 0.00 | 0.00 | 0.00 | 75 | 1021.3 |
| 20260509053914 | 58 | 233 | 0.0 | 0.0 | 0.00 | 0.00 | 0.00 | 74 | 1021.4 |
| 20260509053415 | 58 | 233 | 0.0 | 0.0 | 0.00 | 0.00 | 0.00 | 74 | 1021.4 |
| 20260509052914 | 58 | 233 | 0.0 | 0.0 | 0.00 | 0.00 | 0.00 | 73 | 1021.4 |
| 20260509052414 | 58 | 233 | 0.0 | 0.0 | 0.00 | 0.00 | 0.00 | 72 | 1021.2 |
| 20260509051915 | 59 | 233 | 0.0 | 0.0 | 0.00 | 0.00 | 0.00 | 72 | 1021.2 |
| 20260509051415 | 59 | 230 | 0.0 | 0.0 | 0.00 | 0.00 | 0.00 | 72 | 1021.2 |
| 20260509050915 | 59 | 230 | 0.0 | 0.0 | 0.00 | 0.00 | 0.00 | 71 | 1021.0 |
| 20260509050415 | 60 | 231 | 0.0 | 0.0 | 0.00 | 0.00 | 0.00 | 71 | 1021.0 |
| 20260509045915 | 60 | 231 | 0.0 | 0.0 | 0.00 | 0.00 | 0.00 | 70 | 1021.0 |
| 20260509045415 | 60 | 229 | 0.0 | 0.0 | 0.00 | 0.00 | 0.00 | 70 | 1020.8 |
| 20260509044914 | 60 | 229 | 0.0 | 0.0 | 0.00 | 0.00 | 0.00 | 70 | 1020.8 |
| 20260509044415 | 60 | 229 | 0.0 | 0.0 | 0.00 | 0.00 | 0.00 | 69 | 1020.8 |
| 20260509043915 | 60 | 229 | 0.0 | 0.0 | 0.00 | 0.00 | 0.00 | 69 | 1020.7 |
| 20260509043415 | 60 | 229 | 0.0 | 0.0 | 0.00 | 0.00 | 0.00 | 69 | 1020.7 |
| 20260509042914 | 61 | 229 | 0.0 | 0.0 | 0.00 | 0.00 | 0.00 | 69 | 1020.8 |
| 20260509042414 | 61 | 229 | 0.0 | 0.0 | 0.00 | 0.00 | 0.00 | 68 | 1020.6 |
| 20260509041914 | 61 | 229 | 0.0 | 0.0 | 0.00 | 0.00 | 0.00 | 68 | 1020.6 |
| 20260509041414 | 61 | 229 | 0.0 | 0.0 | 0.00 | 0.00 | 0.00 | 68 | 1020.6 |
| 20260509040914 | 61 | 229 | 0.0 | 0.0 | 0.00 | 0.00 | 0.00 | 67 | 1020.5 |
| 20260509040414 | 61 | 229 | 0.0 | 0.0 | 0.00 | 0.00 | 0.00 | 67 | 1020.5 |
| 20260509035914 | 62 | 226 | 0.0 | 0.0 | 0.00 | 0.00 | 0.00 | 66 | 1020.5 |
| 20260509035414 | 62 | 226 | 0.0 | 1.0 | 0.00 | 0.00 | 0.00 | 66 | 1020.3 |
| 20260509034914 | 62 | 197 | 0.0 | 1.0 | 0.00 | 0.00 | 0.00 | 65 | 1020.3 |
| 20260509034414 | 62 | 197 | 0.0 | 1.0 | 0.00 | 0.00 | 0.00 | 66 | 1020.3 |
| 20260509033914 | 62 | 197 | 0.0 | 1.0 | 0.00 | 0.00 | 0.00 | 66 | 1020.3 |
| 20260509033414 | 62 | 197 | 0.0 | 2.0 | 0.00 | 0.00 | 0.00 | 65 | 1020.3 |
| 20260509032914 | 63 | 198 | 0.0 | 3.0 | 0.00 | 0.00 | 0.00 | 65 | 1020.3 |
| 20260509032414 | 63 | 234 | 0.0 | 3.0 | 0.00 | 0.00 | 0.00 | 64 | 1020.3 |
| 20260509031914 | 63 | 338 | 0.0 | 0.0 | 0.00 | 0.00 | 0.00 | 64 | 1020.3 |
| 20260509031414 | 63 | 338 | 0.0 | 0.0 | 0.00 | 0.00 | 0.00 | 64 | 1020.3 |
| 20260509030914 | 63 | 339 | 0.0 | 0.0 | 0.00 | 0.00 | 0.00 | 64 | 1020.2 |
| 20260509030413 | 63 | 340 | 0.0 | 2.0 | 0.00 | 0.00 | 0.00 | 64 | 1020.2 |
| 20260509025913 | 64 | 340 | 0.0 | 2.0 | 0.00 | 0.00 | 0.00 | 64 | 1020.2 |
| 20260509025413 | 64 | 150 | 0.0 | 1.0 | 0.00 | 0.00 | 0.00 | 63 | 1020.1 |
| 20260509024913 | 64 | 150 | 1.0 | 3.0 | 0.00 | 0.00 | 0.00 | 62 | 1020.1 |
| 20260509024413 | 64 | 150 | 0.0 | 3.0 | 0.00 | 0.00 | 0.00 | 62 | 1020.1 |
| 20260509023913 | 64 | 76 | 0.0 | 1.0 | 0.00 | 0.00 | 0.00 | 62 | 1020.0 |
| 20260509023413 | 64 | 314 | 0.0 | 0.0 | 0.00 | 0.00 | 0.00 | 62 | 1020.0 |
| 20260509022913 | 64 | 313 | 0.0 | 1.0 | 0.00 | 0.00 | 0.00 | 61 | 1020.0 |
| 20260509022413 | 65 | 309 | 0.0 | 1.0 | 0.00 | 0.00 | 0.00 | 61 | 1019.9 |
| 20260509021913 | 65 | 321 | 0.0 | 2.0 | 0.00 | 0.00 | 0.00 | 60 | 1019.9 |
| 20260509021413 | 65 | 229 | 0.0 | 2.0 | 0.00 | 0.00 | 0.00 | 61 | 1019.9 |
| 20260509020913 | 65 | 225 | 0.0 | 2.0 | 0.00 | 0.00 | 0.00 | 61 | 1020.0 |
| 20260509020414 | 66 | 5 | 1.0 | 4.0 | 0.00 | 0.00 | 0.00 | 59 | 1020.0 |
| 20260509015913 | 66 | 236 | 1.0 | 4.0 | 0.00 | 0.00 | 0.00 | 58 | 1020.0 |
| 20260509015413 | 66 | 306 | 1.0 | 4.0 | 0.00 | 0.00 | 0.00 | 58 | 1020.0 |
| 20260509014913 | 66 | 213 | 0.0 | 4.0 | 0.00 | 0.00 | 0.00 | 58 | 1020.0 |
| 20260509014413 | 66 | 193 | 2.0 | 4.0 | 0.00 | 0.00 | 0.00 | 57 | 1020.0 |
| 20260509013913 | 66 | 84 | 0.0 | 2.0 | 0.00 | 0.00 | 0.00 | 58 | 1020.0 |
| 20260509013413 | 67 | 99 | 0.0 | 3.0 | 0.00 | 0.00 | 0.00 | 57 | 1020.0 |
| 20260509012913 | 67 | 53 | 1.0 | 3.0 | 0.00 | 0.00 | 0.00 | 57 | 1020.0 |
| 20260509012413 | 67 | 340 | 1.0 | 2.0 | 0.00 | 0.00 | 0.00 | 56 | 1020.2 |
| 20260509011913 | 67 | 22 | 0.0 | 5.0 | 0.00 | 0.00 | 0.00 | 59 | 1020.2 |
| 20260509011413 | 67 | 284 | 1.0 | 5.0 | 0.00 | 0.00 | 0.00 | 56 | 1020.2 |
| 20260509010413 | 67 | 219 | 0.0 | 4.0 | 0.00 | 0.00 | 0.00 | 57 | 1020.3 |
| 20260509005913 | 68 | 162 | 1.0 | 4.0 | 0.00 | 0.00 | 0.00 | 57 | 1020.3 |
| 20260509005413 | 68 | 94 | 3.0 | 4.0 | 0.00 | 0.00 | 0.00 | 55 | 1020.3 |
| 20260509004913 | 68 | 126 | 0.0 | 3.0 | 0.00 | 0.00 | 0.00 | 55 | 1020.3 |
| 20260509004413 | 68 | 55 | 3.0 | 7.0 | 0.00 | 0.00 | 0.00 | 58 | 1020.3 |
| 20260509003913 | 68 | 254 | 0.0 | 7.0 | 0.00 | 0.00 | 0.00 | 55 | 1020.3 |
| 20260509003413 | 69 | 296 | 1.0 | 5.0 | 0.00 | 0.00 | 0.00 | 55 | 1020.3 |
| 20260509002913 | 69 | 55 | 0.0 | 5.0 | 0.00 | 0.00 | 0.00 | 52 | 1020.3 |
| 20260509002413 | 69 | 9 | 1.0 | 2.0 | 0.00 | 0.00 | 0.00 | 55 | 1020.3 |
| 20260509001913 | 69 | 237 | 0.0 | 2.0 | 0.00 | 0.00 | 0.00 | 53 | 1020.3 |
| 20260509000913 | 68 | 261 | 0.0 | 2.0 | 0.00 | 0.00 | 0.00 | 56 | 1020.3 |
| 20260508234412 | 68 | 38 | 2.0 | 3.0 | 0.00 | 0.00 | 0.00 | 55 | 1020.4 |
| 20260508233912 | 68 | 259 | 0.0 | 6.0 | 0.00 | 0.00 | 0.00 | 54 | 1020.6 |
| 20260508233412 | 67 | 211 | 0.0 | 6.0 | 0.00 | 0.00 | 0.00 | 55 | 1020.6 |
| 20260508232913 | 67 | 191 | 0.0 | 6.0 | 0.00 | 0.00 | 0.00 | 56 | 1020.6 |
| 20260508231912 | 67 | 137 | 3.0 | 4.0 | 0.00 | 0.00 | 0.00 | 55 | 1020.5 |
| 20260508231412 | 67 | 76 | 0.0 | 4.0 | 0.00 | 0.00 | 0.00 | 55 | 1020.5 |
| 20260508230912 | 67 | 78 | 3.0 | 5.0 | 0.00 | 0.00 | 0.00 | 55 | 1020.7 |
| 20260508230413 | 67 | 59 | 1.0 | 5.0 | 0.00 | 0.00 | 0.00 | 52 | 1020.7 |
| 20260508225912 | 67 | 81 | 5.0 | 5.0 | 0.00 | 0.00 | 0.00 | 52 | 1020.7 |
| 20260508225412 | 68 | 275 | 0.0 | 3.0 | 0.00 | 0.00 | 0.00 | 53 | 1020.6 |
| 20260508224912 | 67 | 86 | 0.0 | 3.0 | 0.00 | 0.00 | 0.00 | 54 | 1020.6 |
| 20260508224413 | 67 | 23 | 2.0 | 3.0 | 0.00 | 0.00 | 0.00 | 52 | 1020.6 |
| 20260508223913 | 66 | 32 | 0.0 | 6.0 | 0.00 | 0.00 | 0.00 | 55 | 1020.7 |
| 20260508223412 | 66 | 19 | 0.0 | 6.0 | 0.00 | 0.00 | 0.00 | 56 | 1020.7 |
| 20260508220912 | 65 | 250 | 0.0 | 7.0 | 0.00 | 0.00 | 0.00 | 60 | 1020.8 |
| 20260508214912 | 65 | 143 | 2.0 | 8.0 | 0.00 | 0.00 | 0.00 | 53 | 1021.0 |
| 20260508214412 | 65 | 126 | 0.0 | 5.0 | 0.00 | 0.00 | 0.00 | 55 | 1021.0 |
| 20260508213412 | 65 | 173 | 1.0 | 6.0 | 0.00 | 0.00 | 0.00 | 54 | 1020.9 |
| 20260508212912 | 64 | 166 | 0.0 | 6.0 | 0.00 | 0.00 | 0.00 | 55 | 1020.9 |
| 20260508212412 | 64 | 180 | 6.0 | 6.0 | 0.00 | 0.00 | 0.00 | 59 | 1021.1 |
| 20260508211911 | 64 | 161 | 2.0 | 5.0 | 0.00 | 0.00 | 0.00 | 55 | 1021.1 |
| 20260508210412 | 64 | 194 | 1.0 | 5.0 | 0.00 | 0.00 | 0.00 | 55 | 1020.9 |
| 20260508205912 | 65 | 129 | 4.0 | 5.0 | 0.00 | 0.00 | 0.00 | 60 | 1020.9 |
| 20260508205411 | 64 | 93 | 1.0 | 7.0 | 0.00 | 0.00 | 0.00 | 60 | 1021.0 |
| 20260508204912 | 64 | 112 | 0.0 | 7.0 | 0.00 | 0.00 | 0.00 | 55 | 1021.0 |
| 20260508204412 | 64 | 355 | 3.0 | 6.0 | 0.00 | 0.00 | 0.00 | 58 | 1021.0 |
| 20260508203911 | 63 | 115 | 2.0 | 7.0 | 0.00 | 0.00 | 0.00 | 58 | 1021.0 |
| 20260508203412 | 62 | 159 | 3.0 | 7.0 | 0.00 | 0.00 | 0.00 | 57 | 1020.9 |
| 20260508202911 | 62 | 116 | 3.0 | 7.0 | 0.00 | 0.00 | 0.00 | 59 | 1020.9 |
| 20260508201911 | 63 | 53 | 3.0 | 7.0 | 0.00 | 0.00 | 0.00 | 56 | 1021.0 |
| 20260508200912 | 62 | 192 | 4.0 | 5.0 | 0.00 | 0.00 | 0.00 | 57 | 1021.1 |
| 20260508200411 | 62 | 108 | 3.0 | 5.0 | 0.00 | 0.00 | 0.00 | 62 | 1021.1 |
| 20260508195912 | 62 | 81 | 1.0 | 5.0 | 0.00 | 0.00 | 0.00 | 57 | 1021.1 |
| 20260508194411 | 62 | 36 | 4.0 | 6.0 | 0.00 | 0.00 | 0.00 | 62 | 1021.3 |
| 20260508193912 | 61 | 46 | 1.0 | 6.0 | 0.00 | 0.00 | 0.00 | 58 | 1021.2 |
| 20260508193411 | 61 | 179 | 1.0 | 5.0 | 0.00 | 0.00 | 0.00 | 57 | 1021.2 |
| 20260508192911 | 61 | 86 | 3.0 | 5.0 | 0.00 | 0.00 | 0.00 | 59 | 1021.3 |
| 20260508192411 | 61 | 140 | 3.0 | 4.0 | 0.00 | 0.00 | 0.00 | 62 | 1021.4 |
| 20260508191411 | 60 | 123 | 0.0 | 4.0 | 0.00 | 0.00 | 0.00 | 60 | 1021.3 |
| 20260508190911 | 61 | 39 | 0.0 | 3.0 | 0.00 | 0.00 | 0.00 | 59 | 1021.3 |
| 20260508190411 | 61 | 159 | 0.0 | 4.0 | 0.00 | 0.00 | 0.00 | 59 | 1021.3 |
| 20260508185911 | 61 | 133 | 0.0 | 4.0 | 0.00 | 0.00 | 0.00 | 60 | 1021.3 |
| 20260508185411 | 61 | 133 | 0.0 | 5.0 | 0.00 | 0.00 | 0.00 | 60 | 1021.4 |
| 20260508184411 | 61 | 146 | 1.0 | 5.0 | 0.00 | 0.00 | 0.00 | 56 | 1021.4 |
| 20260508183910 | 61 | 86 | 1.0 | 5.0 | 0.00 | 0.00 | 0.00 | 60 | 1021.5 |
| 20260508183411 | 60 | 320 | 2.0 | 5.0 | 0.00 | 0.00 | 0.00 | 58 | 1021.5 |
| 20260508182911 | 60 | 217 | 5.0 | 5.0 | 0.00 | 0.00 | 0.00 | 60 | 1021.5 |
| 20260508182411 | 60 | 142 | 0.0 | 5.0 | 0.00 | 0.00 | 0.00 | 57 | 1021.3 |
| 20260508181411 | 61 | 294 | 0.0 | 5.0 | 0.00 | 0.00 | 0.00 | 60 | 1021.3 |
| 20260508180910 | 62 | 320 | 2.0 | 5.0 | 0.00 | 0.00 | 0.00 | 55 | 1021.3 |
| 20260508180410 | 63 | 247 | 1.0 | 5.0 | 0.00 | 0.00 | 0.00 | 60 | 1021.3 |
| 20260508175910 | 62 | 246 | 3.0 | 7.0 | 0.00 | 0.00 | 0.00 | 60 | 1021.3 |
| 20260508175410 | 62 | 220 | 1.0 | 7.0 | 0.00 | 0.00 | 0.00 | 60 | 1021.3 |
| 20260508174410 | 61 | 329 | 1.0 | 4.0 | 0.00 | 0.00 | 0.00 | 63 | 1021.3 |
| 20260508173910 | 60 | 215 | 3.0 | 4.0 | 0.00 | 0.00 | 0.00 | 64 | 1021.2 |
| 20260508172410 | 58 | 208 | 2.0 | 7.0 | 0.00 | 0.00 | 0.00 | 65 | 1021.0 |
| 20260508171910 | 58 | 239 | 1.0 | 7.0 | 0.00 | 0.00 | 0.00 | 65 | 1021.0 |
| 20260508170911 | 58 | 216 | 2.0 | 7.0 | 0.00 | 0.00 | 0.00 | 66 | 1021.0 |
| 20260508170410 | 57 | 360 | 1.0 | 5.0 | 0.00 | 0.00 | 0.00 | 68 | 1021.0 |
| 20260508165910 | 57 | 223 | 1.0 | 5.0 | 0.00 | 0.00 | 0.00 | 71 | 1021.0 |
| 20260508165410 | 56 | 192 | 2.0 | 6.0 | 0.00 | 0.00 | 0.00 | 71 | 1021.0 |
| 20260508164910 | 55 | 194 | 2.0 | 9.0 | 0.00 | 0.00 | 0.00 | 71 | 1021.0 |
| 20260508164410 | 54 | 360 | 1.0 | 9.0 | 0.00 | 0.00 | 0.00 | 72 | 1021.0 |
| 20260508163410 | 54 | 312 | 2.0 | 5.0 | 0.00 | 0.00 | 0.00 | 77 | 1021.0 |
| 20260508162410 | 53 | 360 | 2.0 | 5.0 | 0.00 | 0.00 | 0.00 | 78 | 1020.8 |
| 20260508161910 | 53 | 360 | 0.0 | 5.0 | 0.00 | 0.00 | 0.00 | 78 | 1020.8 |
| 20260508160909 | 53 | 360 | 3.0 | 4.0 | 0.00 | 0.00 | 0.00 | 78 | 1020.6 |
| 20260508160410 | 53 | 360 | 3.0 | 7.0 | 0.00 | 0.00 | 0.00 | 79 | 1020.6 |
| 20260508155910 | 52 | 360 | 4.0 | 7.0 | 0.00 | 0.00 | 0.00 | 80 | 1020.6 |
| 20260508155410 | 52 | 187 | 3.0 | 7.0 | 0.00 | 0.00 | 0.00 | 80 | 1020.3 |
| 20260508154910 | 53 | 132 | 2.0 | 6.0 | 0.00 | 0.00 | 0.00 | 82 | 1020.3 |
| 20260508154409 | 52 | 202 | 4.0 | 6.0 | 0.00 | 0.00 | 0.00 | 80 | 1020.3 |
| 20260508152910 | 51 | 137 | 1.0 | 3.0 | 0.00 | 0.00 | 0.00 | 82 | 1020.7 |
| 20260508152410 | 51 | 175 | 3.0 | 5.0 | 0.00 | 0.00 | 0.00 | 83 | 1020.3 |
| 20260508151909 | 51 | 172 | 1.0 | 5.0 | 0.00 | 0.00 | 0.00 | 84 | 1020.3 |
| 20260508151409 | 51 | 152 | 0.0 | 3.0 | 0.00 | 0.00 | 0.00 | 87 | 1020.3 |
| 20260508150409 | 49 | 178 | 2.0 | 2.0 | 0.00 | 0.00 | 0.00 | 91 | 1020.5 |
| 20260508145409 | 47 | 360 | 0.0 | 0.0 | 0.00 | 0.00 | 0.00 | 91 | 1020.3 |
| 20260508144910 | 46 | 360 | 0.0 | 0.0 | 0.00 | 0.00 | 0.00 | 90 | 1020.3 |
| 20260508144409 | 46 | 360 | 0.0 | 0.0 | 0.00 | 0.00 | 0.00 | 90 | 1020.3 |
| 20260508143909 | 46 | 360 | 0.0 | 0.0 | 0.00 | 0.00 | 0.00 | 90 | 1020.3 |
| 20260508143410 | 46 | 360 | 0.0 | 1.0 | 0.00 | 0.00 | 0.00 | 91 | 1020.3 |
| 20260508142909 | 46 | 360 | 0.0 | 2.0 | 0.00 | 0.00 | 0.00 | 91 | 1020.3 |
| 20260508141909 | 45 | 360 | 0.0 | 0.0 | 0.00 | 0.00 | 0.00 | 91 | 1020.2 |
| 20260508141409 | 45 | 360 | 0.0 | 0.0 | 0.00 | 0.00 | 0.00 | 91 | 1020.2 |
| 20260508140409 | 45 | 360 | 0.0 | 0.0 | 0.00 | 0.00 | 0.00 | 92 | 1020.1 |
| 20260508135409 | 45 | 360 | 0.0 | 0.0 | 0.00 | 0.00 | 0.00 | 92 | 1020.2 |
| 20260508134909 | 44 | 360 | 0.0 | 0.0 | 0.00 | 0.00 | 0.00 | 92 | 1020.2 |
| 20260508134409 | 44 | 360 | 0.0 | 0.0 | 0.00 | 0.00 | 0.00 | 92 | 1020.2 |
| 20260508133909 | 44 | 360 | 0.0 | 0.0 | 0.00 | 0.00 | 0.00 | 92 | 1019.8 |
| 20260508132909 | 44 | 195 | 0.0 | 0.0 | 0.00 | 0.00 | 0.00 | 91 | 1019.8 |